Flag for Canada Weather past 2 weeks in Sidney, British Columbia, Canada

Now
50 °F

Light rain. More clouds than sun.


Feels Like: 45 °F
Forecast: 48 / 56 °F
Wind: 14 mph from Southeast

Location: Victoria Int. Airportb. C.

Current Time: Mar 29, 2015 at 9:47:12 AM

Latest Report: Mar 29, 2015 at 9:00 AM


Visibility: 20 mi

Pressure: 30.16 "Hg

Humidity: 82%

Dew point: 45 °F

Location of SidneyLocation

Historic Weather in Sidney — Graph

°F

Sidney temperature yesterday

Maximum temperature yesterday: 57 °F (at 3:00 PM)
Minimum temperature yesterday: 50 °F (at 3:00 AM)
Average temperature yesterday: 53 °F

Past Weeks' High & Low Weather Summary

 TemperatureHumidityPressure
High59 °F (Mar 14, 11:00 AM)100% (Mar 14, 9:00 AM)30.31 "Hg (Mar 14, 9:00 AM)
Low36 °F (Mar 24, 7:03 AM)41% (Mar 16, 5:00 PM)29.67 "Hg (Mar 14, 8:00 AM)
Average49 °F85%30.05 "Hg
* Reported Mar 14 8:00 AM — Mar 29 8:00 AM, Sidney, Weather by CustomWeather, © 2015

Note: Actual official high and low records may vary slightly from our data, if they occured in-between our weather recording intervals... More about our weather records

Advertising

Sidney weather history for previous 24 hours

 ConditionsComfort  
Time TempWeatherWind HumidityBarometerVisibility
8:00 AM
Sun, Mar 29
50 °FMore clouds than sun.15 mph82%30.16 "Hg20 mi
7:00 AM48 °FLight rain. Overcast.10 mph87%30.17 "Hg20 mi
6:00 AM48 °FLight rain. Overcast.5 mph94%30.18 "Hg20 mi
5:00 AM48 °FLight rain. Overcast.2 mph94%30.19 "Hg20 mi
4:00 AM48 °FMostly cloudy.8 mph94%30.19 "Hg20 mi
3:00 AM48 °FOvercast.6 mph94%30.22 "Hg20 mi
2:00 AM48 °FLight rain. Overcast.6 mph94%30.24 "Hg20 mi
1:00 AM48 °FLight rain. Overcast.8 mph94%30.26 "Hg20 mi
12:00 AM50 °FLight rain. Mostly cloudy.No wind82%30.28 "Hg20 mi
11:00 PM
Sat, Mar 28
50 °FLight rain. Mostly cloudy.3 mph82%30.28 "Hg20 mi
10:00 PM52 °FLight rain. Overcast.3 mph72%30.28 "Hg20 mi
9:00 PM52 °FMostly cloudy.3 mph72%30.27 "Hg20 mi
8:00 PM52 °FPartly sunny.6 mph77%30.27 "Hg30 mi
7:00 PM52 °FPartly sunny.8 mph72%30.29 "Hg30 mi
6:00 PM54 °FBroken clouds.12 mph72%30.29 "Hg30 mi
5:00 PM55 °FBroken clouds.7 mph67%30.30 "Hg30 mi
4:00 PM55 °FLight rain. Mostly cloudy.9 mph67%30.29 "Hg30 mi
3:00 PM57 °FPartly sunny.9 mph59%30.29 "Hg30 mi
2:00 PM55 °FPartly sunny.9 mph63%30.30 "Hg30 mi
1:00 PM54 °FBroken clouds.14 mph67%30.31 "Hg30 mi
12:00 PM54 °FPartly sunny.17 mph67%30.29 "Hg30 mi
11:00 AM55 °FBroken clouds.8 mph63%30.26 "Hg30 mi
10:00 AM55 °FPartly sunny.18 mph59%30.23 "Hg30 mi
9:00 AM54 °FPassing clouds.22 mph63%30.20 "Hg30 mi
Weather by CustomWeather, © 2015

See weather overviewHow to use our weather pages